Location: Czekanka
(50.4925°N, 19.2643°E)
Time: 12:12:22
(UTC+00:00)

Cosmos 990 Rocket - Pass Details

Date: 15 June 2024
Orbit: 744 x 766 km, 74.0° (Epoch: 15 July)

Event Time Altitude Azimuth Distance (km) Brightness Sun altitude
Exits shadow 00:08:19 18° 223° (SW) 1,753 5.3 -13.8°
Maximum altitude 00:12:01 59° 298° (WNW) 863 4.3 -13.6°
Drops below altitude 10° 00:17:05 10° 18° (NNE) 2,272 7.9 -13.3°
Sets 00:19:30 0° 23° (NNE) 3,201 9.3 -13.2°
